KA1AL Weather Reports


time (UTC)temp
F
wind
direction
speed
knots
gust
knots
rain 1hr
in
rain 24hr
in
rain mn
in
humidity
%
barometer
mb
20260506044457 0 0.0 0.0 0.00 0.00 0.00 1007.2
20260506043954 0 0.0 0.0 0.00 0.00 0.00 1007.2
20260506043451 0 0.0 0.0 0.00 0.00 0.00 1007.3
20260506042949 0 0.0 0.0 0.00 0.00 0.00 1007.0
20260506042449 55 144 0.0 0.0 0.00 0.00 0.00 99 1007.1
20260506041946 55 144 0.0 0.0 0.00 0.00 0.00 99 1006.8
20260506041444 55 168 0.0 0.0 0.00 0.00 0.00 99 1006.9
20260506040941 55 186 0.0 0.0 0.00 0.00 0.00 99 1007.0
20260506040438 55 178 0.0 0.0 0.00 0.00 0.00 99 1007.2
20260506035934 55 161 0.0 0.0 0.00 0.19 0.19 99 1007.1
20260506035432 55 168 0.0 0.9 0.00 0.19 0.19 99 1006.8
20260506034928 55 217 0.9 0.9 0.00 0.19 0.19 99 1006.9
20260506034426 55 161 0.0 0.0 0.00 0.19 0.19 99 1006.9
20260506033923 55 165 2.6 4.3 0.00 0.19 0.19 99 1006.7
20260506033420 56 175 2.6 2.6 0.00 0.19 0.19 99 1006.9
20260506032917 56 184 1.7 1.7 0.00 0.19 0.19 99 1006.8
20260506032414 56 180 2.6 2.6 0.00 0.19 0.19 99 1007.2
20260506031910 56 180 2.6 2.6 0.00 0.19 0.19 99 1006.8
20260506031408 56 201 2.6 2.6 0.05 0.19 0.19 99 1006.9
20260506030905 56 168 1.7 1.7 0.05 0.19 0.19 99 1007.0
20260506030403 56 194 2.6 2.6 0.07 0.18 0.18 99 1007.0
20260506025859 56 203 2.6 2.6 0.07 0.18 0.18 99 1007.2
20260506025356 56 195 1.7 2.6 0.00 0.17 0.17 99 1007.1
20260506024853 56 202 1.7 1.7 0.00 0.17 0.17 99 1006.9
20260506024350 56 202 1.7 1.7 0.00 0.17 0.17 99 1007.1
20260506023846 56 174 2.6 2.6 0.00 0.17 0.17 99 1007.2
20260506023343 56 151 0.9 1.7 0.00 0.17 0.17 99 1007.2
20260506022840 56 189 1.7 1.7 0.00 0.17 0.17 99 1007.3
20260506022338 56 174 1.7 1.7 0.00 0.17 0.17 99 1007.6
20260506021836 56 162 0.0 0.0 0.00 0.17 0.17 99 1007.3
20260506021332 56 177 0.0 0.0 0.00 0.17 0.17 99 1007.1
20260506020829 56 169 0.0 0.0 0.00 0.17 0.17 99 1006.7
20260506020327 56 166 0.0 0.0 0.00 0.17 0.17 99 1006.7
20260506015824 56 234 1.7 1.7 0.00 0.17 0.17 99 1006.5
20260506015322 56 185 0.9 0.9 0.00 0.17 0.17 99 1006.4
20260506014818 56 189 0.0 0.9 0.00 0.17 0.17 99 1007.0
20260506014315 56 148 0.9 1.7 0.00 0.17 0.17 99 1006.8
20260506013812 57 219 1.7 2.6 0.00 0.17 0.17 99 1006.9
20260506013309 57 200 1.7 1.7 0.00 0.17 0.17 99 1006.6
20260506012806 56 134 2.6 2.6 0.00 0.17 0.17 99 1006.8
20260506012307 56 155 0.0 0.0 0.00 0.17 0.17 99 1006.7
20260506011800 56 93 0.9 0.9 0.00 0.17 0.17 99 1006.0
20260506011255 57 78 0.9 1.7 0.00 0.17 0.17 99 1006.1
20260506010754 57 131 0.0 0.0 0.00 0.17 0.17 99 1006.3
20260506010251 57 156 0.0 0.9 0.00 0.17 0.17 99 1006.3
20260506005748 57 121 0.0 0.0 0.00 0.17 0.17 99 1006.2
20260506005245 57 147 0.9 0.9 0.00 0.17 0.17 99 1006.2
20260506004741 57 176 0.0 0.0 0.00 0.17 0.17 99 1006.3
20260506004239 57 211 0.9 1.7 0.00 0.17 0.17 99 1006.5
20260506003734 57 193 0.9 1.7 0.00 0.17 0.17 99 1006.3
20260506003231 57 204 3.5 4.3 0.00 0.17 0.17 99 1006.2
20260506002727 57 155 5.2 7.0 0.00 0.17 0.17 99 1006.1
20260506002224 57 217 1.7 1.7 0.00 0.17 0.17 99 1006.4
20260506001719 57 208 2.6 2.6 0.00 0.17 0.17 99 1006.2
20260506001217 57 246 3.5 4.3 0.00 0.17 0.17 99 1006.2
20260506000714 57 253 1.7 1.7 0.00 0.17 0.17 99 1005.7
20260506000212 57 233 1.7 1.7 0.07 0.17 0.17 99 1005.6
20260505235709 58 263 1.7 1.7 0.07 0.17 0.17 99 1005.6
20260505235206 58 229 4.3 5.2 0.05 0.16 0.16 99 1005.9
20260505234703 58 209 3.5 5.2 0.05 0.16 0.16 99 1006.1
20260505234200 57 225 2.6 2.6 0.00 0.15 0.15 99 1006.1
20260505233656 58 228 2.6 2.6 0.00 0.15 0.15 99 1006.0
20260505233154 58 217 5.2 6.1 0.00 0.15 0.15 99 1005.7
20260505232646 58 220 4.3 5.2 0.00 0.15 0.15 99 1005.8
20260505232143 58 237 3.5 4.3 0.00 0.15 0.15 99 1005.6
20260505231640 58 217 3.5 5.2 0.12 0.15 0.15 99 1005.7
20260505231139 58 221 3.5 5.2 0.19 0.15 0.15 99 1005.7
20260505230636 58 266 6.1 7.0 0.12 0.13 0.13 99 1005.6
20260505230132 58 255 5.2 6.1 0.12 0.12 0.12 99 1005.6
20260505225629 58 279 4.3 6.1 0.07 0.11 0.11 99 1005.8
20260505225125 58 233 4.3 6.1 0.12 0.11 0.11 99 1005.5
20260505224622 59 281 9.6 11.3 0.17 0.10 0.10 99 1005.7
20260505224119 59 288 6.1 7.0 0.19 0.09 0.09 99 1005.9
20260505223616 59 229 11.3 14.8 0.31 0.07 0.07 99 1005.9
20260505223113 59 285 5.2 7.0 0.35 0.06 0.06 99 1005.7
20260505222609 60 243 5.2 7.8 0.17 0.03 0.03 96 1005.6
20260505222105 63 260 7.8 11.3 0.00 0.00 0.00 87 1005.2
20260505221602 66 281 6.1 7.0 0.00 0.00 0.00 79 1004.6
20260505221059 69 260 7.8 11.3 0.00 0.00 0.00 64 1004.5
20260505220556 69 243 9.6 12.2 0.00 0.00 0.00 63 1003.3
20260505220054 69 203 7.8 8.7 0.00 0.00 0.00 63 1002.5
20260505215552 69 185 8.7 11.3 0.00 0.00 0.00 63 1002.5
20260505215049 70 192 4.3 7.0 0.00 0.00 0.00 62 1002.2
20260505214547 70 189 10.4 13.0 0.00 0.00 0.00 62 1002.4
20260505214044 70 210 3.5 6.1 0.00 0.00 0.00 62 1002.0
20260505213542 71 254 10.4 13.0 0.00 0.00 0.00 61 1002.2
20260505213038 71 240 8.7 11.3 0.00 0.00 0.00 60 1002.1
20260505212534 71 248 8.7 12.2 0.00 0.00 0.00 60 1002.0
20260505212032 71 236 9.6 13.0 0.00 0.00 0.00 61 1002.0
20260505211529 71 159 7.0 7.8 0.00 0.00 0.00 61 1002.0
20260505211025 71 184 7.8 8.7 0.00 0.00 0.00 61 1001.9
20260505210522 71 263 4.3 6.1 0.00 0.00 0.00 61 1001.9
20260505210019 71 169 11.3 13.9 0.00 0.00 0.00 60 1002.0
20260505205517 72 173 8.7 11.3 0.00 0.00 0.00 59 1001.6
20260505205014 72 225 7.8 8.7 0.00 0.00 0.00 59 1001.8
20260505204512 73 193 7.8 9.6 0.00 0.00 0.00 59 1001.8
20260505204009 72 243 7.0 9.6 0.00 0.00 0.00 58 1001.9
20260505203505 72 201 12.2 13.9 0.00 0.00 0.00 59 1002.1
20260505203001 73 220 11.3 13.0 0.00 0.00 0.00 58 1002.1
20260505202458 72 250 18.2 22.6 0.00 0.00 0.00 58 1002.0
20260505201954 72 161 8.7 11.3 0.00 0.00 0.00 58 1001.9
20260505201451 73 185 14.8 18.2 0.00 0.00 0.00 57 1002.0
20260505200949 73 244 14.8 19.1 0.00 0.00 0.00 57 1001.8
20260505200447 73 241 5.2 6.1 0.00 0.00 0.00 57 1001.8
20260505195942 73 233 9.6 20.0 0.00 0.00 0.00 59 1002.1
20260505195440 73 208 13.0 19.1 0.00 0.00 0.00 57 1001.9
20260505194937 73 231 13.0 18.2 0.00 0.00 0.00 57 1001.8
20260505194434 74 214 8.7 13.9 0.00 0.00 0.00 57 1002.0
20260505193934 74 247 10.4 12.2 0.00 0.00 0.00 56 1001.9
20260505193432 74 259 10.4 12.2 0.00 0.00 0.00 56 1002.2
20260505192930 74 271 12.2 14.8 0.00 0.00 0.00 56 1002.2
20260505192428 74 225 9.6 13.0 0.00 0.00 0.00 56 1002.2
20260505191925 75 227 12.2 18.2 0.00 0.00 0.00 56 1002.2
20260505191424 75 218 7.0 9.6 0.00 0.00 0.00 56 1002.3
20260505190920 74 208 11.3 18.2 0.00 0.00 0.00 56 1002.4
20260505190415 74 203 6.1 7.8 0.00 0.00 0.00 56 1002.5
20260505185911 74 220 7.0 9.6 0.00 0.00 0.00 56 1002.4
20260505185408 74 207 13.0 18.2 0.00 0.00 0.00 55 1002.5
20260505184904 74 227 11.3 14.8 0.00 0.00 0.00 56 1002.4
20260505184401 73 233 12.2 14.8 0.00 0.00 0.00 56 1002.6
20260505183858 73 198 8.7 12.2 0.00 0.00 0.00 56 1002.7
20260505183355 73 190 7.8 11.3 0.00 0.00 0.00 59 1002.8
20260505182851 73 238 17.4 22.6 0.00 0.00 0.00 57 1002.8
20260505182348 73 253 7.8 11.3 0.00 0.00 0.00 57 1003.0
20260505181845 74 198 11.3 13.0 0.00 0.00 0.00 56 1002.8
20260505181342 74 179 15.6 21.7 0.00 0.00 0.00 55 1002.8
20260505180839 74 226 10.4 12.2 0.00 0.00 0.00 55 1002.9
20260505180335 74 188 4.3 6.1 0.00 0.00 0.00 59 1002.8
20260505175832 74 243 15.6 20.9 0.00 0.00 0.00 56 1003.1
20260505175328 74 217 9.6 11.3 0.00 0.00 0.00 58 1003.2
20260505174825 73 222 8.7 11.3 0.00 0.00 0.00 57 1003.3
20260505174323 73 214 13.0 15.6 0.00 0.00 0.00 56 1003.5
20260505173818 73 223 5.2 8.7 0.00 0.00 0.00 58 1003.2
20260505173315 73 154 9.6 13.0 0.00 0.00 0.00 58 1003.6
20260505172813 73 208 13.9 17.4 0.00 0.00 0.00 55 1003.5
20260505172310 73 211 7.8 11.3 0.00 0.00 0.00 56 1003.7
20260505171804 72 232 4.3 7.0 0.00 0.00 0.00 57 1003.8
20260505171301 72 234 11.3 15.6 0.00 0.00 0.00 57 1004.0
20260505170757 72 252 13.0 17.4 0.00 0.00 0.00 57 1004.4
20260505170255 71 245 10.4 15.6 0.00 0.00 0.00 58 1004.1
20260505165750 71 191 7.8 8.7 0.00 0.00 0.00 58 1004.5
20260505165246 71 167 13.9 18.2 0.00 0.00 0.00 60 1004.0
20260505164741 71 198 13.9 18.2 0.00 0.00 0.00 57 1004.1
20260505164239 71 202 12.2 14.8 0.00 0.00 0.00 59 1004.5
20260505163737 70 191 9.6 13.0 0.00 0.00 0.00 59 1004.5
20260505163236 71 217 7.8 9.6 0.00 0.00 0.00 59 1004.5
20260505162732 70 239 9.6 11.3 0.00 0.00 0.00 59 1004.6
20260505162229 69 209 5.2 9.6 0.00 0.00 0.00 60 1004.6
20260505161726 69 179 4.3 6.1 0.00 0.00 0.00 61 1004.8
20260505161224 69 192 2.6 6.1 0.00 0.00 0.00 63 1004.8
20260505160721 69 199 9.6 12.2 0.00 0.00 0.00 61 1004.8
20260505160219 67 215 7.8 12.2 0.00 0.00 0.00 61 1005.1
20260505153158 66 221 7.8 11.3 0.00 0.00 0.00 63 1005.7
20260505152654 66 218 11.3 13.9 0.00 0.00 0.00 64 1005.8
20260505152151 66 231 9.6 12.2 0.00 0.00 0.00 64 1005.8
20260505151646 65 244 7.0 9.6 0.00 0.00 0.00 64 1005.8
20260505151144 66 212 8.7 9.6 0.00 0.00 0.00 64 1005.8
20260505150639 65 184 8.7 12.2 0.00 0.00 0.00 65 1005.8
20260505150137 64 197 6.1 7.8 0.00 0.00 0.00 64 1005.7
20260505140605 60 154 4.3 6.1 0.00 0.00 0.00 71 1006.2
20260505125018 54 201 6.1 7.8 0.00 0.00 0.00 77 1006.3
20260505124515 54 241 6.1 7.0 0.00 0.00 0.00 77 1006.4
20260505124012 54 197 6.1 7.8 0.00 0.00 0.00 77 1006.6
20260505123508 55 214 7.8 7.8 0.00 0.00 0.00 76 1006.4
20260505123004 55 266 3.5 6.1 0.00 0.00 0.00 77 1006.4
20260505122501 54 249 4.3 7.0 0.00 0.00 0.00 78 1006.4
20260505121958 54 244 6.1 7.0 0.00 0.00 0.00 80 1006.5
20260505121455 53 219 5.2 6.1 0.00 0.00 0.00 79 1006.8
20260505120951 53 234 4.3 6.1 0.00 0.00 0.00 81 1006.3
20260505120447 53 229 6.1 7.8 0.00 0.00 0.00 81 1006.5
20260505115946 53 219 7.8 8.7 0.00 0.00 0.00 80 1006.7
20260505115443 52 199 4.3 8.7 0.00 0.00 0.00 81 1006.4
20260505114942 52 248 3.5 4.3 0.00 0.00 0.00 82 1006.7
20260505114437 51 223 5.2 7.0 0.00 0.00 0.00 84 1006.5
20260505113934 50 199 4.3 6.1 0.00 0.00 0.00 84 1006.7
20260505113430 50 196 3.5 6.1 0.00 0.00 0.00 83 1006.4
20260505112926 50 206 4.3 6.1 0.00 0.00 0.00 84 1006.5
20260505112424 50 195 2.6 2.6 0.00 0.00 0.00 85 1006.8
20260505111920 49 212 0.0 0.9 0.00 0.00 0.00 85 1006.7
20260505111415 49 195 2.6 2.6 0.00 0.00 0.00 86 1006.7
20260505110912 48 217 0.9 1.7 0.00 0.00 0.00 86 1006.4
20260505110409 48 205 2.6 2.6 0.00 0.00 0.00 86 1006.7
20260505101839 46 196 1.7 1.7 0.00 0.00 0.00 88 1006.5
20260505101334 46 225 1.7 1.7 0.00 0.00 0.00 89 1006.6
20260505100830 46 211 1.7 2.6 0.00 0.00 0.00 89 1006.7
20260505100327 46 242 2.6 2.6 0.00 0.00 0.00 89 1006.4
20260505095822 46 217 1.7 1.7 0.00 0.00 0.00 89 1006.4
20260505095321 45 185 1.7 2.6 0.00 0.00 0.00 90 1006.4
20260505094816 45 209 0.9 1.7 0.00 0.00 0.00 90 1006.5
20260505094313 46 209 2.6 2.6 0.00 0.00 0.00 90 1006.2
20260505093809 46 196 2.6 2.6 0.00 0.00 0.00 89 1006.6
20260505093307 46 225 2.6 4.3 0.00 0.00 0.00 89 1006.4
20260505092803 45 209 1.7 2.6 0.00 0.00 0.00 90 1006.3
20260505092304 45 195 0.0 0.0 0.00 0.00 0.00 91 1006.2
20260505091759 45 190 0.9 0.9 0.00 0.00 0.00 90 1006.3
20260505091256 45 212 0.9 1.7 0.00 0.00 0.00 90 1006.3
20260505090754 45 241 2.6 2.6 0.00 0.00 0.00 91 1006.3
20260505090252 45 201 2.6 2.6 0.00 0.00 0.00 91 1006.3
20260505085749 45 217 2.6 2.6 0.00 0.00 0.00 91 1006.7
20260505085247 45 241 0.9 0.9 0.00 0.00 0.00 91 1006.3
20260505084744 45 188 1.7 1.7 0.00 0.00 0.00 91 1006.3
20260505084243 45 223 1.7 1.7 0.00 0.00 0.00 91 1006.6
20260505083739 45 203 0.9 1.7 0.00 0.00 0.00 91 1006.6
20260505083236 45 234 0.9 1.7 0.00 0.00 0.00 91 1006.6
20260505082732 45 188 0.9 0.9 0.00 0.00 0.00 91 1006.7
20260505082230 45 213 1.7 1.7 0.00 0.00 0.00 91 1006.9
20260505081725 45 193 0.9 1.7 0.00 0.00 0.00 90 1006.6
20260505081223 45 173 0.9 0.9 0.00 0.00 0.00 91 1006.6
20260505080720 46 203 0.9 1.7 0.00 0.00 0.00 90 1006.7
20260505080215 46 194 1.7 1.7 0.00 0.00 0.00 90 1006.7
20260505075711 46 263 0.9 0.9 0.00 0.00 0.00 90 1006.5
20260505075209 46 177 0.9 0.9 0.00 0.00 0.00 89 1006.5
20260505074706 46 164 0.9 0.9 0.00 0.00 0.00 89 1006.3
20260505074203 46 200 0.0 0.9 0.00 0.00 0.00 89 1006.5
20260505073700 46 183 0.9 0.9 0.00 0.00 0.00 89 1006.6
20260505073158 46 192 0.9 1.7 0.00 0.00 0.00 89 1006.6
20260505072654 46 177 0.9 1.7 0.00 0.00 0.00 89 1006.6
20260505072151 46 204 1.7 1.7 0.00 0.00 0.00 89 1006.5
20260505071646 46 181 0.9 0.9 0.00 0.00 0.00 90 1006.6
20260505071144 45 201 1.7 1.7 0.00 0.00 0.00 91 1006.5
20260505070641 45 238 0.0 0.0 0.00 0.00 0.00 90 1006.3
20260505070137 46 173 0.0 0.0 0.00 0.00 0.00 89 1006.4
20260505065633 45 183 0.0 0.0 0.00 0.00 0.00 90 1006.5
20260505065130 45 172 0.0 0.0 0.00 0.00 0.00 90 1006.4
20260505064627 45 150 0.0 0.0 0.00 0.00 0.00 91 1006.5
20260505064125 45 156 0.0 0.0 0.00 0.00 0.00 89 1006.6
20260505063622 45 119 0.0 0.0 0.00 0.00 0.00 90 1006.5
20260505063118 46 158 0.0 0.0 0.00 0.00 0.00 89 1006.6
20260505062615 46 134 0.0 0.0 0.00 0.00 0.00 89 1006.6
20260505062112 46 166 0.0 0.0 0.00 0.00 0.00 88 1006.7
20260505061609 46 201 0.9 0.9 0.00 0.00 0.00 88 1007.0
20260505061108 46 192 0.0 0.0 0.00 0.00 0.00 88 1006.9
20260505060604 47 201 0.0 0.0 0.00 0.00 0.00 86 1006.8
20260505055556 48 149 0.0 0.0 0.00 0.00 0.00 84 1006.7
20260505055053 48 125 0.0 0.0 0.00 0.00 0.00 83 1006.6
20260505054550 49 137 0.0 0.0 0.00 0.00 0.00 83 1006.6
20260505054049 49 155 0.0 0.9 0.00 0.00 0.00 82 1006.9
20260505053545 49 184 0.9 1.7 0.00 0.00 0.00 82 1006.7
20260505053042 48 140 0.0 0.0 0.00 0.00 0.00 82 1006.6
20260505052539 49 175 0.0 0.0 0.00 0.00 0.00 82 1006.5
20260505052037 48 134 0.0 0.0 0.00 0.00 0.00 82 1006.5
20260505051533 49 103 0.9 0.9 0.00 0.00 0.00 82 1006.6
20260505051031 49 180 0.0 0.0 0.00 0.00 0.00 81 1006.5
20260505050529 50 165 0.9 0.9 0.00 0.00 0.00 80 1006.5